LTU694 EDDF-CYYZ

Flight info

Callsign LTU694
Flight time N/A
Altitude 36000
Route OBOKA3M/25C OBOKA Z28 DIBIR DCT BUDIP DCT RAVLO Y70 OTBED DCT ABLUC DCT OZRAT DCT WETFI DCT DODIG DCT REVNU DCT PIKIL/M083F370 NATA JANJO/N0491F380 DCT ALKOB/N0493F400 DCT YBC DCT POLTY IMEBA9
Aircraft MD11/H-SDE1E2E3FGHIJ2J3J4J5M1RWXY/LB1D1

Departure

Time N/A
Airport Frankfurt Main Airport (EDDF)

Arrival

Time 2026-05-04 20:34
Airport Toronto Pearson International Airport (CYYZ)
Time Latitude Longitude Altitude Speed Heading
2026-05-04 14:28 54.44079 -9.91358 36109 ft 471 kts 284°
2026-05-04 14:28 54.45445 -10.02366 36108 ft 471 kts 284°
2026-05-04 14:29 54.47297 -10.13097 36107 ft 467 kts 297°
2026-05-04 14:29 54.50500 -10.22752 36109 ft 465 kts 303°
2026-05-04 14:30 54.53952 -10.32175 36110 ft 465 kts 303°
2026-05-04 14:31 54.58948 -10.46451 36119 ft 463 kts 302°
2026-05-04 14:32 54.65443 -10.65574 36118 ft 461 kts 301°
2026-05-04 14:32 54.68657 -10.75084 36122 ft 460 kts 301°
2026-05-04 14:33 54.71869 -10.84624 36119 ft 459 kts 301°
2026-05-04 14:33 54.75074 -10.94183 36120 ft 459 kts 301°
2026-05-04 14:34 54.78266 -11.03740 36119 ft 458 kts 301°
2026-05-04 14:34 54.81452 -11.13312 36119 ft 458 kts 300°
2026-05-04 14:35 54.84625 -11.22884 36118 ft 457 kts 300°
2026-05-04 14:35 54.87781 -11.32452 36118 ft 457 kts 300°
2026-05-04 14:36 54.90874 -11.41995 36116 ft 456 kts 300°
2026-05-04 14:36 54.93983 -11.51609 36119 ft 456 kts 300°
2026-05-04 14:37 54.97105 -11.61205 36118 ft 456 kts 300°
2026-05-04 14:37 55.00223 -11.70802 36123 ft 455 kts 300°
2026-05-04 14:38 55.03336 -11.80417 36122 ft 455 kts 300°
2026-05-04 14:38 55.06434 -11.90028 36118 ft 454 kts 299°
2026-05-04 14:39 55.09515 -11.99636 36114 ft 453 kts 299°
2026-05-04 14:39 55.12588 -12.09245 36107 ft 453 kts 299°
2026-05-04 14:40 55.17174 -12.23655 36093 ft 452 kts 298°
2026-05-04 14:40 55.20220 -12.33269 36093 ft 451 kts 298°
2026-05-04 14:41 55.23253 -12.42889 36090 ft 451 kts 298°
2026-05-04 14:42 55.29284 -12.62160 36091 ft 451 kts 298°
2026-05-04 14:42 55.32249 -12.71855 36092 ft 450 kts 298°
2026-05-04 14:43 55.35223 -12.81536 36083 ft 451 kts 298°
2026-05-04 14:43 55.38214 -12.91232 36082 ft 451 kts 298°
2026-05-04 14:44 55.41197 -13.00920 36082 ft 450 kts 298°
2026-05-04 14:44 55.44170 -13.10614 36082 ft 450 kts 297°
2026-05-04 14:45 55.47117 -13.20267 36082 ft 450 kts 297°
2026-05-04 14:45 55.50073 -13.29994 36082 ft 450 kts 297°
2026-05-04 14:46 55.53021 -13.39727 36082 ft 449 kts 297°
2026-05-04 14:46 55.55957 -13.49462 36081 ft 449 kts 297°
2026-05-04 14:47 55.58869 -13.59165 36081 ft 448 kts 296°
2026-05-04 14:47 55.61780 -13.68905 36082 ft 448 kts 296°
2026-05-04 14:48 55.64681 -13.78651 36084 ft 447 kts 296°
2026-05-04 14:48 55.67571 -13.88392 36082 ft 446 kts 296°
2026-05-04 14:49 55.70410 -13.98172 36082 ft 446 kts 295°
2026-05-04 14:49 55.73229 -14.07887 36082 ft 446 kts 296°
2026-05-04 14:50 55.76078 -14.17660 36081 ft 446 kts 296°
2026-05-04 14:50 55.78929 -14.27434 36082 ft 446 kts 296°
2026-05-04 14:51 55.81776 -14.37235 36081 ft 446 kts 295°
2026-05-04 14:51 55.84615 -14.47045 36083 ft 446 kts 296°
2026-05-04 14:52 55.87451 -14.56892 36082 ft 447 kts 296°
2026-05-04 14:52 55.90285 -14.66762 36082 ft 448 kts 295°
2026-05-04 14:53 55.93115 -14.76673 36082 ft 448 kts 295°
2026-05-04 14:53 55.95937 -14.86601 36082 ft 449 kts 295°
2026-05-04 14:54 55.98753 -14.96548 36082 ft 449 kts 295°
2026-05-04 14:54 56.01558 -15.06511 36082 ft 448 kts 294°
2026-05-04 14:55 56.04030 -15.16669 36081 ft 444 kts 290°
2026-05-04 14:55 56.06271 -15.26941 36085 ft 444 kts 290°
2026-05-04 14:56 56.08524 -15.37266 36089 ft 445 kts 290°
2026-05-04 14:56 56.10799 -15.47594 36094 ft 446 kts 290°
2026-05-04 14:57 56.13075 -15.57937 36117 ft 446 kts 290°
2026-05-04 14:57 56.15349 -15.68312 36116 ft 447 kts 290°
2026-05-04 14:58 56.17615 -15.78708 36124 ft 448 kts 290°
2026-05-04 14:58 56.19873 -15.89120 36122 ft 448 kts 290°
2026-05-04 14:59 56.22126 -15.99562 36115 ft 448 kts 290°
2026-05-04 15:00 56.25489 -16.15257 36117 ft 448 kts 290°
2026-05-04 15:00 56.27715 -16.25713 36121 ft 447 kts 289°
2026-05-04 15:01 56.31040 -16.41415 36127 ft 447 kts 289°
2026-05-04 15:01 56.33223 -16.51907 36130 ft 447 kts 289°
2026-05-04 15:02 56.35357 -16.62381 36122 ft 447 kts 289°
2026-05-04 15:02 56.37523 -16.72896 36132 ft 447 kts 289°
2026-05-04 15:03 56.39681 -16.83338 36128 ft 446 kts 289°
2026-05-04 15:03 56.41845 -16.93837 36131 ft 446 kts 289°
2026-05-04 15:04 56.44000 -17.04353 36128 ft 446 kts 289°
2026-05-04 15:04 56.46147 -17.14883 36134 ft 447 kts 289°
2026-05-04 15:05 56.48286 -17.25435 36134 ft 447 kts 289°
2026-05-04 15:05 56.50420 -17.36022 36125 ft 448 kts 289°
2026-05-04 15:06 56.52547 -17.46625 36123 ft 448 kts 289°
2026-05-04 15:07 56.55721 -17.62561 36121 ft 448 kts 289°
2026-05-04 15:07 56.57827 -17.73197 36129 ft 448 kts 289°
2026-05-04 15:08 56.59921 -17.83848 36145 ft 448 kts 288°
2026-05-04 15:08 56.61975 -17.94522 36146 ft 448 kts 288°
2026-05-04 15:09 56.64011 -18.05235 36146 ft 449 kts 289°
2026-05-04 15:09 56.66070 -18.15950 36148 ft 449 kts 289°
2026-05-04 15:10 56.69155 -18.32013 36146 ft 448 kts 289°
2026-05-04 15:11 56.71879 -18.46287 36146 ft 448 kts 289°
2026-05-04 15:11 56.73911 -18.57006 36147 ft 448 kts 289°
2026-05-04 15:12 56.76260 -18.69487 36147 ft 448 kts 289°
2026-05-04 15:12 56.78269 -18.80229 36148 ft 447 kts 288°
2026-05-04 15:13 56.79944 -18.89221 36146 ft 447 kts 288°
2026-05-04 15:13 56.81936 -18.99965 36146 ft 447 kts 288°
2026-05-04 15:14 56.83917 -19.10724 36148 ft 447 kts 288°
2026-05-04 15:14 56.85890 -19.21493 36148 ft 447 kts 288°
2026-05-04 15:15 56.87847 -19.32271 36146 ft 447 kts 288°
2026-05-04 15:15 56.89747 -19.43092 36147 ft 447 kts 288°
2026-05-04 15:16 56.92619 -19.59311 36147 ft 447 kts 288°
2026-05-04 15:17 56.95499 -19.75470 36146 ft 447 kts 288°
2026-05-04 15:17 56.98360 -19.91667 36148 ft 447 kts 288°
2026-05-04 15:18 57.00074 -20.02607 36144 ft 447 kts 280°
2026-05-04 15:19 57.00884 -20.19675 36146 ft 449 kts 274°
2026-05-04 15:19 57.01424 -20.36800 36172 ft 448 kts 274°
2026-05-04 15:20 57.01835 -20.48228 36184 ft 449 kts 275°
2026-05-04 15:20 57.02252 -20.59662 36184 ft 449 kts 274°
2026-05-04 15:21 57.02659 -20.71079 36194 ft 448 kts 274°
2026-05-04 15:22 57.03251 -20.88230 36195 ft 448 kts 274°
2026-05-04 15:22 57.03813 -21.05371 36195 ft 449 kts 274°
2026-05-04 15:23 57.04177 -21.16827 36189 ft 450 kts 274°
2026-05-04 15:23 57.04529 -21.28284 36194 ft 449 kts 274°
2026-05-04 15:24 57.05207 -21.51215 36189 ft 450 kts 274°
2026-05-04 15:25 57.05481 -21.62689 36191 ft 449 kts 273°
2026-05-04 15:26 57.05887 -21.79815 36195 ft 450 kts 273°
2026-05-04 15:26 57.06324 -21.97031 36195 ft 449 kts 273°
2026-05-04 15:27 57.06742 -22.14242 36195 ft 450 kts 273°
2026-05-04 15:28 57.07138 -22.31492 36201 ft 450 kts 273°
2026-05-04 15:29 57.07506 -22.48748 36202 ft 450 kts 272°
2026-05-04 15:30 57.08276 -22.89036 36194 ft 451 kts 272°
2026-05-04 15:31 57.08561 -23.06328 36188 ft 452 kts 272°
2026-05-04 15:32 57.08894 -23.35138 36248 ft 451 kts 272°
2026-05-04 15:34 57.09259 -23.64001 36256 ft 452 kts 271°
2026-05-04 15:34 57.09448 -23.81327 36257 ft 452 kts 271°
2026-05-04 15:35 57.09612 -23.98569 36257 ft 452 kts 271°
2026-05-04 15:36 57.09752 -24.15904 36258 ft 452 kts 271°
2026-05-04 15:36 57.09831 -24.27459 36257 ft 452 kts 271°
2026-05-04 15:37 57.09902 -24.39006 36257 ft 452 kts 271°
2026-05-04 15:37 57.09959 -24.50560 36257 ft 452 kts 271°
2026-05-04 15:38 57.09990 -24.62110 36257 ft 452 kts 270°
2026-05-04 15:38 57.09969 -24.73673 36257 ft 452 kts 270°
2026-05-04 15:39 57.09967 -24.85222 36257 ft 452 kts 270°
2026-05-04 15:40 57.09986 -25.02554 36257 ft 452 kts 270°
2026-05-04 15:40 57.09989 -25.14100 36257 ft 452 kts 270°
2026-05-04 15:41 57.09978 -25.25662 36257 ft 451 kts 270°
2026-05-04 15:41 57.09958 -25.37186 36257 ft 451 kts 270°
2026-05-04 15:42 57.09926 -25.48712 36257 ft 451 kts 270°
2026-05-04 15:42 57.09882 -25.60253 36257 ft 451 kts 270°
2026-05-04 15:43 57.09829 -25.71699 36257 ft 451 kts 270°
2026-05-04 15:43 57.09765 -25.83233 36259 ft 451 kts 270°
2026-05-04 15:44 57.09692 -25.94771 36266 ft 451 kts 270°
2026-05-04 15:44 57.09608 -26.06303 36266 ft 451 kts 269°
2026-05-04 15:45 57.09480 -26.17829 36266 ft 451 kts 269°
2026-05-04 15:45 57.09318 -26.29352 36266 ft 451 kts 269°
2026-05-04 15:46 57.09184 -26.40875 36266 ft 451 kts 269°
2026-05-04 15:46 57.09055 -26.52409 36266 ft 451 kts 269°
2026-05-04 15:47 57.08919 -26.63940 36266 ft 451 kts 269°
2026-05-04 15:47 57.08772 -26.75425 36266 ft 451 kts 269°
2026-05-04 15:48 57.08613 -26.86953 36266 ft 451 kts 269°
2026-05-04 15:48 57.08356 -27.04268 36266 ft 452 kts 268°
2026-05-04 15:49 57.08171 -27.15818 36266 ft 452 kts 268°
2026-05-04 15:49 57.07973 -27.27370 36300 ft 452 kts 268°
2026-05-04 15:50 57.07765 -27.38916 36300 ft 452 kts 268°
2026-05-04 15:50 57.07549 -27.50485 36299 ft 453 kts 268°
2026-05-04 15:51 57.07319 -27.62068 36300 ft 453 kts 268°
2026-05-04 15:51 57.07030 -27.73635 36299 ft 453 kts 267°
2026-05-04 15:52 57.06735 -27.85203 36300 ft 453 kts 268°
2026-05-04 15:52 57.06462 -27.96779 36302 ft 453 kts 268°
2026-05-04 15:53 57.06188 -28.08355 36317 ft 453 kts 268°
2026-05-04 15:53 57.05906 -28.19924 36299 ft 453 kts 268°
2026-05-04 15:54 57.05615 -28.31427 36304 ft 454 kts 267°
2026-05-04 15:54 57.05312 -28.42999 36318 ft 453 kts 267°
2026-05-04 15:55 57.04998 -28.54575 36312 ft 454 kts 267°
2026-05-04 15:55 57.04672 -28.66155 36306 ft 455 kts 267°
2026-05-04 15:56 57.04335 -28.77751 36311 ft 455 kts 267°
2026-05-04 15:56 57.03988 -28.89359 36314 ft 455 kts 267°
2026-05-04 15:57 57.03630 -29.00939 36306 ft 454 kts 267°
2026-05-04 15:57 57.03262 -29.12521 36311 ft 454 kts 266°
2026-05-04 15:58 57.02843 -29.24094 36315 ft 455 kts 266°
2026-05-04 15:58 57.02399 -29.35683 36316 ft 456 kts 266°
2026-05-04 15:59 57.01981 -29.47280 36319 ft 455 kts 266°
2026-05-04 15:59 57.01568 -29.58870 36320 ft 456 kts 266°
2026-05-04 16:00 57.01216 -29.68517 36326 ft 455 kts 266°
2026-05-04 16:00 57.00783 -29.80127 36321 ft 456 kts 266°
2026-05-04 16:01 57.00343 -29.91714 36330 ft 456 kts 266°
2026-05-04 16:01 57.00094 -30.03328 36316 ft 456 kts 271°
2026-05-04 16:02 57.00469 -30.14910 36320 ft 457 kts 274°
2026-05-04 16:03 57.01223 -30.32354 36324 ft 457 kts 274°
2026-05-04 16:03 57.01680 -30.43996 36325 ft 457 kts 274°
2026-05-04 16:04 57.02106 -30.55636 36324 ft 457 kts 274°
2026-05-04 16:04 57.02727 -30.73114 36318 ft 457 kts 274°
2026-05-04 16:05 57.03127 -30.84759 36316 ft 457 kts 273°
2026-05-04 16:06 57.03708 -31.02247 36316 ft 458 kts 273°
2026-05-04 16:07 57.04445 -31.25638 36245 ft 459 kts 273°
2026-05-04 16:08 57.05134 -31.48923 36229 ft 458 kts 273°
2026-05-04 16:09 57.05834 -31.78160 36230 ft 458 kts 273°
2026-05-04 16:10 57.06430 -32.01560 36230 ft 459 kts 272°
2026-05-04 16:11 57.06984 -32.25008 36230 ft 459 kts 272°
2026-05-04 16:12 57.07730 -32.60157 36220 ft 459 kts 272°
2026-05-04 16:13 57.08176 -32.83614 36220 ft 459 kts 272°
2026-05-04 16:14 57.08555 -33.07064 36220 ft 458 kts 271°
2026-05-04 16:16 57.08902 -33.36267 36220 ft 458 kts 272°
2026-05-04 16:17 57.09272 -33.65507 36220 ft 459 kts 272°
2026-05-04 16:18 57.09518 -33.88967 36219 ft 458 kts 272°
2026-05-04 16:19 57.09761 -34.18259 36211 ft 458 kts 272°
2026-05-04 16:20 57.09941 -34.47544 36211 ft 458 kts 271°
2026-05-04 16:22 57.09952 -34.76841 36211 ft 458 kts 271°
2026-05-04 16:23 57.09978 -35.11975 36211 ft 458 kts 271°
2026-05-04 16:25 57.09922 -35.47065 36202 ft 457 kts 271°
2026-05-04 16:26 57.09733 -35.87883 36202 ft 457 kts 270°
2026-05-04 16:28 57.09467 -36.17085 36202 ft 456 kts 270°
2026-05-04 16:29 57.08987 -36.57912 36194 ft 456 kts 270°
2026-05-04 16:31 57.08606 -36.87067 36202 ft 456 kts 270°
2026-05-04 16:32 57.08060 -37.21986 36170 ft 456 kts 269°
2026-05-04 16:33 57.07644 -37.45203 36157 ft 456 kts 269°
2026-05-04 16:34 57.07294 -37.62661 36155 ft 456 kts 269°
2026-05-04 16:35 57.06434 -37.97558 36157 ft 455 kts 269°
2026-05-04 16:36 57.06022 -38.14986 36155 ft 454 kts 269°
2026-05-04 16:37 57.05583 -38.32368 36146 ft 454 kts 269°
2026-05-04 16:38 57.04965 -38.55468 36145 ft 454 kts 269°
2026-05-04 16:39 57.04132 -38.84399 36146 ft 454 kts 269°
2026-05-04 16:40 57.03416 -39.07512 36145 ft 453 kts 268°
2026-05-04 16:41 57.02366 -39.36329 36146 ft 452 kts 268°
2026-05-04 16:43 57.01338 -39.65115 36148 ft 452 kts 268°
2026-05-04 16:43 57.00695 -39.82368 36147 ft 452 kts 268°
2026-05-04 16:45 56.98813 -40.16674 36142 ft 450 kts 266°
2026-05-04 16:46 56.97121 -40.45157 36137 ft 450 kts 266°
2026-05-04 16:47 56.95725 -40.67861 36138 ft 449 kts 266°
2026-05-04 16:48 56.94289 -40.90566 36140 ft 448 kts 266°
2026-05-04 16:49 56.92815 -41.13216 36134 ft 447 kts 266°
2026-05-04 16:50 56.91430 -41.33895 36144 ft 447 kts 266°
2026-05-04 16:51 56.90204 -41.50801 36134 ft 446 kts 266°
2026-05-04 16:52 56.88591 -41.73290 36127 ft 446 kts 267°
2026-05-04 16:53 56.87384 -41.90136 36126 ft 445 kts 266°
2026-05-04 16:54 56.85740 -42.12540 36133 ft 442 kts 266°
2026-05-04 16:55 56.83221 -42.45842 36127 ft 439 kts 266°
2026-05-04 16:56 56.81062 -42.73442 36129 ft 438 kts 266°
2026-05-04 16:57 56.79737 -42.89929 36130 ft 438 kts 265°
2026-05-04 16:58 56.77865 -43.11742 36101 ft 435 kts 265°
2026-05-04 17:00 56.75121 -43.44345 36101 ft 432 kts 265°
2026-05-04 17:01 56.72792 -43.71320 36101 ft 430 kts 264°
2026-05-04 17:02 56.70898 -43.92738 36098 ft 428 kts 264°
2026-05-04 17:03 56.69457 -44.08775 36100 ft 427 kts 263°
2026-05-04 17:03 56.68000 -44.24711 36092 ft 426 kts 263°
2026-05-04 17:04 56.65988 -44.45877 36004 ft 426 kts 262°
2026-05-04 17:05 56.63908 -44.67158 35996 ft 427 kts 262°
2026-05-04 17:06 56.62380 -44.83015 35991 ft 427 kts 262°
2026-05-04 17:07 56.60994 -44.97223 35988 ft 428 kts 262°
2026-05-04 17:07 56.59772 -45.09590 35980 ft 428 kts 262°
2026-05-04 17:08 56.58178 -45.25536 35979 ft 428 kts 261°
2026-05-04 17:09 56.57103 -45.36163 35976 ft 429 kts 261°
2026-05-04 17:09 56.56017 -45.46800 35963 ft 429 kts 261°
2026-05-04 17:10 56.53265 -45.73371 35938 ft 429 kts 260°
2026-05-04 17:11 56.52148 -45.83992 35934 ft 429 kts 260°
2026-05-04 17:12 56.50383 -45.99885 35934 ft 429 kts 259°
2026-05-04 17:13 56.47481 -46.26391 35924 ft 430 kts 259°
2026-05-04 17:14 56.45141 -46.47605 35917 ft 431 kts 259°
2026-05-04 17:15 56.43367 -46.63456 35915 ft 431 kts 258°
2026-05-04 17:16 56.40960 -46.84681 35906 ft 432 kts 258°
2026-05-04 17:17 56.38507 -47.05924 35898 ft 433 kts 258°
2026-05-04 17:18 56.36015 -47.27188 35887 ft 434 kts 257°
2026-05-04 17:19 56.33396 -47.48491 35880 ft 436 kts 256°
2026-05-04 17:20 56.30778 -47.69875 35872 ft 439 kts 256°
2026-05-04 17:20 56.28817 -47.85939 35860 ft 438 kts 256°
2026-05-04 17:21 56.26149 -48.07357 35852 ft 439 kts 255°
2026-05-04 17:22 56.24804 -48.18057 35852 ft 439 kts 255°
2026-05-04 17:23 56.22083 -48.39445 35840 ft 439 kts 255°
2026-05-04 17:24 56.20018 -48.55467 35832 ft 439 kts 255°
2026-05-04 17:25 56.17236 -48.76788 35823 ft 438 kts 255°
2026-05-04 17:26 56.14337 -48.97977 35810 ft 439 kts 254°
2026-05-04 17:27 56.10738 -49.24612 35794 ft 440 kts 253°
2026-05-04 17:28 56.07826 -49.45926 35788 ft 441 kts 253°
2026-05-04 17:29 56.03365 -49.77939 35767 ft 442 kts 252°
2026-05-04 17:31 55.98719 -50.04000 35747 ft 439 kts 243°
2026-05-04 17:32 55.92623 -50.28837 35731 ft 440 kts 243°
2026-05-04 17:33 55.89000 -50.43824 36454 ft 437 kts 243°
2026-05-04 17:33 55.87792 -50.48803 36661 ft 440 kts 243°
2026-05-04 17:34 55.82946 -50.68646 36702 ft 429 kts 243°
2026-05-04 17:35 55.76945 -50.92950 36684 ft 431 kts 242°
2026-05-04 17:36 55.74522 -51.02685 36677 ft 431 kts 242°
2026-05-04 17:36 55.72089 -51.12414 36663 ft 432 kts 242°
2026-05-04 17:37 55.69645 -51.22154 36659 ft 432 kts 241°
2026-05-04 17:37 55.67179 -51.31865 36654 ft 432 kts 240°
2026-05-04 17:38 55.64671 -51.41549 36646 ft 433 kts 240°
2026-05-04 17:38 55.62178 -51.51258 36637 ft 433 kts 241°
2026-05-04 17:39 55.58870 -51.64191 36627 ft 433 kts 241°
2026-05-04 17:39 55.56379 -51.73892 36612 ft 434 kts 240°
2026-05-04 17:40 55.54109 -51.82690 36574 ft 434 kts 240°
2026-05-04 17:40 55.51602 -51.92371 36565 ft 434 kts 240°
2026-05-04 17:41 55.49086 -52.02042 36550 ft 434 kts 240°
2026-05-04 17:41 55.46554 -52.11726 36522 ft 436 kts 240°
2026-05-04 17:42 55.44010 -52.21422 36496 ft 436 kts 240°
2026-05-04 17:42 55.41442 -52.31160 36490 ft 442 kts 240°
2026-05-04 17:43 55.38831 -52.41015 36487 ft 447 kts 240°
2026-05-04 17:43 55.36213 -52.50869 36487 ft 448 kts 239°
2026-05-04 17:44 55.33563 -52.60792 36481 ft 449 kts 239°
2026-05-04 17:44 55.30860 -52.70678 36477 ft 450 kts 239°
2026-05-04 17:45 55.28153 -52.80577 36459 ft 450 kts 239°
2026-05-04 17:45 55.25459 -52.90499 36461 ft 450 kts 239°
2026-05-04 17:46 55.22765 -53.00414 36457 ft 451 kts 238°
2026-05-04 17:46 55.20057 -53.10343 36430 ft 453 kts 238°
2026-05-04 17:47 55.17350 -53.20224 36398 ft 452 kts 238°
2026-05-04 17:47 55.14617 -53.30153 36401 ft 454 kts 238°
2026-05-04 17:48 55.11871 -53.40086 36407 ft 454 kts 238°
2026-05-04 17:48 55.09113 -53.50015 36405 ft 454 kts 238°
2026-05-04 17:49 55.06363 -53.59876 36391 ft 455 kts 238°
2026-05-04 17:49 55.03584 -53.69793 36396 ft 455 kts 237°
2026-05-04 17:50 55.00776 -53.79765 36395 ft 456 kts 237°
2026-05-04 17:50 54.97997 -53.89622 36389 ft 457 kts 237°
2026-05-04 17:51 54.95150 -53.99511 36389 ft 457 kts 237°
2026-05-04 17:51 54.92284 -54.09406 36391 ft 460 kts 237°
2026-05-04 17:52 54.89409 -54.19394 36386 ft 463 kts 236°
2026-05-04 17:52 54.86534 -54.29399 36375 ft 463 kts 237°
2026-05-04 17:53 54.83657 -54.39378 36373 ft 462 kts 236°
2026-05-04 17:53 54.80766 -54.49351 36372 ft 463 kts 236°
2026-05-04 17:54 54.77881 -54.59267 36373 ft 464 kts 236°
2026-05-04 17:54 54.74968 -54.69231 36358 ft 464 kts 236°
2026-05-04 17:55 54.72044 -54.79197 36355 ft 464 kts 236°
2026-05-04 17:55 54.69110 -54.89154 36355 ft 465 kts 236°
2026-05-04 17:56 54.66164 -54.99100 36354 ft 465 kts 235°
2026-05-04 17:56 54.63205 -55.09048 36342 ft 466 kts 235°
2026-05-04 17:57 54.60233 -55.19001 36347 ft 467 kts 235°
2026-05-04 17:57 54.57214 -55.28908 36343 ft 467 kts 234°
2026-05-04 17:58 54.54182 -55.38836 36346 ft 468 kts 234°
2026-05-04 17:58 54.51160 -55.48792 36348 ft 470 kts 234°
2026-05-04 17:59 54.48128 -55.58777 36341 ft 471 kts 234°
2026-05-04 18:00 54.43549 -55.73780 36339 ft 473 kts 234°
2026-05-04 18:00 54.40483 -55.83780 36336 ft 474 kts 234°
2026-05-04 18:01 54.37402 -55.93780 36330 ft 474 kts 234°
2026-05-04 18:01 54.34308 -56.03771 36320 ft 475 kts 233°
2026-05-04 18:02 54.29685 -56.18641 36324 ft 475 kts 233°
2026-05-04 18:02 54.26549 -56.28668 36317 ft 475 kts 233°
2026-05-04 18:03 54.23450 -56.38536 36308 ft 474 kts 233°
2026-05-04 18:03 54.20312 -56.48458 36320 ft 474 kts 233°
2026-05-04 18:04 54.17136 -56.58318 36316 ft 474 kts 233°
2026-05-04 18:05 54.12389 -56.73128 36316 ft 474 kts 233°
2026-05-04 18:05 54.09226 -56.83013 36320 ft 475 kts 233°
2026-05-04 18:06 54.04470 -56.97819 36324 ft 476 kts 233°
2026-05-04 18:06 54.01280 -57.07689 36311 ft 476 kts 233°
2026-05-04 18:07 53.98078 -57.17555 36309 ft 479 kts 233°
2026-05-04 18:07 53.94854 -57.27438 36321 ft 482 kts 233°
2026-05-04 18:08 53.91572 -57.37474 36305 ft 484 kts 233°
2026-05-04 18:08 53.88292 -57.47450 36320 ft 492 kts 233°
2026-05-04 18:09 53.81598 -57.67720 36314 ft 493 kts 233°
2026-05-04 18:10 53.78212 -57.77784 36321 ft 492 kts 232°
2026-05-04 18:10 53.74804 -57.87841 36324 ft 493 kts 233°
2026-05-04 18:11 53.71418 -57.97906 36305 ft 492 kts 233°
2026-05-04 18:11 53.68043 -58.07966 36326 ft 493 kts 233°
2026-05-04 18:12 53.64711 -58.18105 36316 ft 495 kts 234°
2026-05-04 18:12 53.61385 -58.28258 36319 ft 495 kts 234°
2026-05-04 18:13 53.58049 -58.38396 36316 ft 495 kts 234°
2026-05-04 18:14 53.53008 -58.53624 35191 ft 501 kts 234°
2026-05-04 18:14 53.51349 -58.58635 35556 ft 487 kts 233°
2026-05-04 18:14 53.49698 -58.63596 35937 ft 486 kts 234°
2026-05-04 18:15 53.46366 -58.73530 36294 ft 493 kts 234°
2026-05-04 18:15 53.42958 -58.83647 36318 ft 500 kts 234°
2026-05-04 18:16 53.39557 -58.93760 36322 ft 497 kts 234°
2026-05-04 18:16 53.36144 -59.03846 36318 ft 498 kts 234°
2026-05-04 18:17 53.31015 -59.18918 36308 ft 498 kts 234°
2026-05-04 18:18 53.25832 -59.33907 36314 ft 499 kts 234°
2026-05-04 18:18 53.22344 -59.43927 36307 ft 499 kts 234°
2026-05-04 18:19 53.17135 -59.58966 36303 ft 500 kts 234°
2026-05-04 18:19 53.13649 -59.68998 36310 ft 500 kts 234°
2026-05-04 18:20 53.10160 -59.79002 36318 ft 500 kts 234°
2026-05-04 18:20 53.06657 -59.88996 36300 ft 500 kts 234°
2026-05-04 18:21 53.03147 -59.98971 36301 ft 500 kts 234°
2026-05-04 18:21 52.99624 -60.08944 36311 ft 500 kts 234°
2026-05-04 18:22 52.96104 -60.18881 36308 ft 499 kts 234°
2026-05-04 18:22 52.92574 -60.28788 36301 ft 499 kts 234°
2026-05-04 18:23 52.89041 -60.38671 36312 ft 499 kts 234°
2026-05-04 18:23 52.85481 -60.48530 36314 ft 498 kts 234°
2026-05-04 18:24 52.81893 -60.58340 36301 ft 498 kts 234°
2026-05-04 18:24 52.78320 -60.68157 36300 ft 499 kts 234°
2026-05-04 18:25 52.74753 -60.77977 36313 ft 498 kts 234°
2026-05-04 18:25 52.71212 -60.87693 36315 ft 497 kts 234°
2026-05-04 18:26 52.67638 -60.97454 36300 ft 497 kts 234°
2026-05-04 18:26 52.64058 -61.07198 36314 ft 497 kts 234°
2026-05-04 18:27 52.60471 -61.16923 36308 ft 497 kts 234°
2026-05-04 18:27 52.56878 -61.26625 36300 ft 496 kts 235°
2026-05-04 18:28 52.53283 -61.36297 36312 ft 497 kts 235°
2026-05-04 18:28 52.49674 -61.45977 36677 ft 497 kts 235°
2026-05-04 18:29 52.47871 -61.50792 37041 ft 494 kts 235°
2026-05-04 18:29 52.46681 -61.53963 37283 ft 492 kts 235°
2026-05-04 18:29 52.44894 -61.58728 37667 ft 489 kts 235°
2026-05-04 18:29 52.43111 -61.63447 37994 ft 487 kts 234°
2026-05-04 18:30 52.39515 -61.72829 38480 ft 486 kts 234°
2026-05-04 18:30 52.37723 -61.77513 38719 ft 486 kts 234°
2026-05-04 18:30 52.35933 -61.82209 38934 ft 486 kts 235°
2026-05-04 18:31 52.34150 -61.86896 39146 ft 485 kts 235°
2026-05-04 18:31 52.32365 -61.91589 39274 ft 487 kts 235°
2026-05-04 18:31 52.30570 -61.96299 39321 ft 489 kts 235°
2026-05-04 18:32 52.26979 -62.05697 39337 ft 485 kts 235°
2026-05-04 18:32 52.23415 -62.14991 39342 ft 485 kts 235°
2026-05-04 18:33 52.19830 -62.24310 39336 ft 485 kts 235°
2026-05-04 18:33 52.16234 -62.33624 39335 ft 485 kts 234°
2026-05-04 18:34 52.12631 -62.42913 39339 ft 485 kts 234°
2026-05-04 18:34 52.09017 -62.52191 39334 ft 485 kts 234°
2026-05-04 18:35 52.05401 -62.61447 39334 ft 485 kts 234°
2026-05-04 18:35 52.01775 -62.70700 39336 ft 486 kts 234°
2026-05-04 18:36 51.98131 -62.79917 39334 ft 485 kts 234°
2026-05-04 18:36 51.94467 -62.89070 39339 ft 483 kts 234°
2026-05-04 18:37 51.90821 -62.98213 39335 ft 483 kts 234°
2026-05-04 18:37 51.87185 -63.07349 39333 ft 482 kts 234°
2026-05-04 18:38 51.83571 -63.16408 39325 ft 482 kts 234°
2026-05-04 18:38 51.79922 -63.25521 39327 ft 483 kts 234°
2026-05-04 18:39 51.76266 -63.34611 39324 ft 482 kts 234°
2026-05-04 18:39 51.72606 -63.43681 39327 ft 482 kts 234°
2026-05-04 18:40 51.68936 -63.52751 39328 ft 483 kts 234°
2026-05-04 18:40 51.65262 -63.61796 39324 ft 482 kts 234°
2026-05-04 18:41 51.61584 -63.70814 39371 ft 482 kts 234°
2026-05-04 18:41 51.57890 -63.79839 39383 ft 483 kts 234°
2026-05-04 18:42 51.54183 -63.88818 39382 ft 482 kts 232°
2026-05-04 18:42 51.50095 -63.97313 39382 ft 480 kts 228°
2026-05-04 18:43 51.45809 -64.05538 39382 ft 480 kts 228°
2026-05-04 18:43 51.41537 -64.13760 39397 ft 480 kts 228°
2026-05-04 18:44 51.37283 -64.22006 39411 ft 480 kts 228°
2026-05-04 18:44 51.33037 -64.30246 39411 ft 480 kts 229°
2026-05-04 18:45 51.28789 -64.38466 39411 ft 480 kts 228°
2026-05-04 18:45 51.24533 -64.46669 39410 ft 479 kts 229°
2026-05-04 18:46 51.20277 -64.54842 39411 ft 479 kts 228°
2026-05-04 18:46 51.16016 -64.63004 39412 ft 479 kts 229°
2026-05-04 18:47 51.11749 -64.71153 39411 ft 479 kts 229°
2026-05-04 18:47 51.07502 -64.79242 39411 ft 478 kts 228°
2026-05-04 18:48 51.03226 -64.87345 39418 ft 478 kts 228°
2026-05-04 18:48 50.98931 -64.95420 39419 ft 478 kts 228°
2026-05-04 18:49 50.94648 -65.03399 39420 ft 478 kts 228°
2026-05-04 18:49 50.90354 -65.11432 39427 ft 478 kts 228°
2026-05-04 18:50 50.86064 -65.19469 39430 ft 478 kts 228°
2026-05-04 18:50 50.81770 -65.27487 39437 ft 478 kts 228°
2026-05-04 18:51 50.77472 -65.35491 39439 ft 477 kts 228°
2026-05-04 18:51 50.73170 -65.43476 39447 ft 477 kts 228°
2026-05-04 18:52 50.68862 -65.51446 39452 ft 477 kts 228°
2026-05-04 18:52 50.64555 -65.59390 39456 ft 477 kts 228°
2026-05-04 18:53 50.60243 -65.67317 39468 ft 476 kts 228°
2026-05-04 18:53 50.55928 -65.75227 39471 ft 476 kts 228°
2026-05-04 18:54 50.51606 -65.83116 39480 ft 476 kts 228°
2026-05-04 18:54 50.47285 -65.90990 39488 ft 476 kts 228°
2026-05-04 18:55 50.42935 -65.98808 39489 ft 475 kts 228°
2026-05-04 18:55 50.36416 -66.10520 39489 ft 475 kts 228°
2026-05-04 18:56 50.32085 -66.18323 39488 ft 475 kts 228°
2026-05-04 18:56 50.27748 -66.26119 39491 ft 475 kts 228°
2026-05-04 18:57 50.23405 -66.33897 39490 ft 475 kts 228°
2026-05-04 18:57 50.19060 -66.41661 39486 ft 475 kts 228°
2026-05-04 18:58 50.14737 -66.49360 39490 ft 475 kts 228°
2026-05-04 18:58 50.10377 -66.57099 39486 ft 475 kts 228°
2026-05-04 18:59 50.06013 -66.64820 39488 ft 476 kts 228°
2026-05-04 18:59 50.01638 -66.72536 39494 ft 476 kts 228°
2026-05-04 19:00 49.97257 -66.80245 39502 ft 475 kts 228°
2026-05-04 19:00 49.92888 -66.87911 39503 ft 473 kts 228°
2026-05-04 19:01 49.88506 -66.95503 39512 ft 473 kts 227°
2026-05-04 19:01 49.84114 -67.03099 39513 ft 472 kts 228°
2026-05-04 19:02 49.79763 -67.10651 39524 ft 472 kts 228°
2026-05-04 19:02 49.75388 -67.18233 39532 ft 472 kts 228°
2026-05-04 19:03 49.71007 -67.25804 39542 ft 472 kts 228°
2026-05-04 19:03 49.66624 -67.33358 39560 ft 472 kts 228°
2026-05-04 19:04 49.62232 -67.40905 39556 ft 472 kts 228°
2026-05-04 19:04 49.57844 -67.48428 39569 ft 472 kts 227°
2026-05-04 19:05 49.53442 -67.55943 39575 ft 472 kts 227°
2026-05-04 19:05 49.49036 -67.63445 39579 ft 472 kts 227°
2026-05-04 19:06 49.44632 -67.70923 39588 ft 472 kts 227°
2026-05-04 19:06 49.40247 -67.78347 39595 ft 472 kts 227°
2026-05-04 19:07 49.35829 -67.85794 39598 ft 472 kts 227°
2026-05-04 19:07 49.31382 -67.93200 39598 ft 472 kts 227°
2026-05-04 19:08 49.26943 -68.00610 39605 ft 471 kts 227°
2026-05-04 19:08 49.22526 -68.07994 39610 ft 471 kts 227°
2026-05-04 19:09 49.18103 -68.15376 39608 ft 470 kts 227°
2026-05-04 19:09 49.13692 -68.22723 39606 ft 469 kts 227°
2026-05-04 19:10 49.09436 -68.30247 39577 ft 469 kts 235°
2026-05-04 19:10 49.06057 -68.38780 39610 ft 471 kts 241°
2026-05-04 19:11 49.02954 -68.47526 39616 ft 467 kts 241°
2026-05-04 19:11 48.99820 -68.56201 39618 ft 468 kts 240°
2026-05-04 19:12 48.95032 -68.69141 39626 ft 467 kts 240°
2026-05-04 19:13 48.91827 -68.77722 39627 ft 467 kts 240°
2026-05-04 19:13 48.88615 -68.86306 39627 ft 467 kts 240°
2026-05-04 19:14 48.85400 -68.94865 39635 ft 466 kts 240°
2026-05-04 19:14 48.82181 -69.03406 39635 ft 466 kts 240°
2026-05-04 19:15 48.78959 -69.11935 39636 ft 466 kts 240°
2026-05-04 19:15 48.75735 -69.20438 39636 ft 464 kts 240°
2026-05-04 19:16 48.72514 -69.28908 39635 ft 464 kts 240°
2026-05-04 19:16 48.69834 -69.35935 39637 ft 463 kts 240°
2026-05-04 19:17 48.66057 -69.45700 39635 ft 462 kts 239°
2026-05-04 19:17 48.62824 -69.54035 39645 ft 461 kts 240°
2026-05-04 19:18 48.60113 -69.61050 39639 ft 461 kts 240°
2026-05-04 19:18 48.56881 -69.69415 39653 ft 460 kts 240°
2026-05-04 19:19 48.53656 -69.77740 39654 ft 459 kts 240°
2026-05-04 19:19 48.50430 -69.86048 39655 ft 459 kts 240°
2026-05-04 19:20 48.47222 -69.94272 39654 ft 458 kts 239°
2026-05-04 19:20 48.43992 -70.02531 39654 ft 458 kts 240°
2026-05-04 19:21 48.40755 -70.10780 39656 ft 457 kts 239°
2026-05-04 19:21 48.37517 -70.19000 39660 ft 457 kts 239°
2026-05-04 19:22 48.34274 -70.27217 39661 ft 457 kts 239°
2026-05-04 19:22 48.31023 -70.35424 39664 ft 457 kts 239°
2026-05-04 19:23 48.27762 -70.43638 39667 ft 458 kts 239°
2026-05-04 19:23 48.24474 -70.51819 39665 ft 458 kts 239°
2026-05-04 19:24 48.21173 -70.59986 39663 ft 458 kts 239°
2026-05-04 19:24 48.17880 -70.68166 39664 ft 459 kts 239°
2026-05-04 19:25 48.14589 -70.76347 39665 ft 459 kts 239°
2026-05-04 19:25 48.11291 -70.84528 39663 ft 459 kts 239°
2026-05-04 19:26 48.07981 -70.92716 39664 ft 460 kts 239°
2026-05-04 19:26 48.04664 -71.00886 39664 ft 460 kts 239°
2026-05-04 19:27 48.01339 -71.09048 39664 ft 460 kts 239°
2026-05-04 19:27 47.98009 -71.17206 39669 ft 460 kts 240°
2026-05-04 19:28 47.94686 -71.25320 39674 ft 457 kts 240°
2026-05-04 19:28 47.91370 -71.33393 39672 ft 457 kts 240°
2026-05-04 19:29 47.88042 -71.41468 39675 ft 458 kts 239°
2026-05-04 19:29 47.84703 -71.49547 39686 ft 458 kts 240°
2026-05-04 19:30 47.81338 -71.57597 39691 ft 459 kts 239°
2026-05-04 19:30 47.77956 -71.65644 39688 ft 458 kts 239°
2026-05-04 19:31 47.74609 -71.73636 39695 ft 459 kts 239°
2026-05-04 19:31 47.71245 -71.81683 39693 ft 459 kts 239°
2026-05-04 19:32 47.67874 -71.89728 39694 ft 459 kts 239°
2026-05-04 19:32 47.64512 -71.97722 39712 ft 459 kts 239°
2026-05-04 19:33 47.61124 -72.05749 39698 ft 459 kts 239°
2026-05-04 19:33 47.57725 -72.13781 39712 ft 460 kts 239°
2026-05-04 19:34 47.54327 -72.21788 39716 ft 459 kts 239°
2026-05-04 19:34 47.50926 -72.29777 39714 ft 458 kts 239°
2026-05-04 19:35 47.47524 -72.37744 39718 ft 458 kts 239°
2026-05-04 19:35 47.44121 -72.45692 39722 ft 458 kts 239°
2026-05-04 19:36 47.40713 -72.53629 39721 ft 457 kts 239°
2026-05-04 19:36 47.37279 -72.61544 39721 ft 458 kts 239°
2026-05-04 19:37 47.33834 -72.69428 39719 ft 457 kts 239°
2026-05-04 19:37 47.30404 -72.77312 39713 ft 456 kts 239°
2026-05-04 19:38 47.26986 -72.85180 39718 ft 456 kts 239°
2026-05-04 19:38 47.23561 -72.93039 39720 ft 456 kts 239°
2026-05-04 19:39 47.20136 -73.00883 39720 ft 456 kts 239°
2026-05-04 19:39 47.16703 -73.08718 39720 ft 456 kts 239°
2026-05-04 19:40 47.13289 -73.16489 39725 ft 455 kts 239°
2026-05-04 19:40 47.09850 -73.24293 39729 ft 455 kts 239°
2026-05-04 19:41 47.06406 -73.32082 39729 ft 455 kts 239°
2026-05-04 19:41 47.02958 -73.39865 39729 ft 455 kts 239°
2026-05-04 19:42 46.99505 -73.47635 39730 ft 455 kts 239°
2026-05-04 19:42 46.96045 -73.55396 39730 ft 455 kts 239°
2026-05-04 19:43 46.92570 -73.63126 39730 ft 454 kts 238°
2026-05-04 19:43 46.89075 -73.70832 39730 ft 455 kts 238°
2026-05-04 19:44 46.85592 -73.78549 39729 ft 454 kts 239°
2026-05-04 19:44 46.82120 -73.86255 39730 ft 454 kts 239°
2026-05-04 19:45 46.78640 -73.93954 39731 ft 454 kts 238°
2026-05-04 19:45 46.75153 -74.01643 39714 ft 454 kts 239°
2026-05-04 19:46 46.71675 -74.09298 39695 ft 452 kts 238°
2026-05-04 19:46 46.68187 -74.16956 39703 ft 453 kts 238°
2026-05-04 19:47 46.64722 -74.24528 39695 ft 452 kts 239°
2026-05-04 19:47 46.61245 -74.32113 39712 ft 452 kts 239°
2026-05-04 19:48 46.57746 -74.39719 39712 ft 453 kts 238°
2026-05-04 19:48 46.54246 -74.47323 39701 ft 453 kts 238°
2026-05-04 19:49 46.50741 -74.54920 39708 ft 453 kts 238°
2026-05-04 19:49 46.47216 -74.62500 39704 ft 453 kts 238°
2026-05-04 19:50 46.43667 -74.70041 39697 ft 453 kts 238°
2026-05-04 19:50 46.40130 -74.77589 39704 ft 452 kts 238°
2026-05-04 19:51 46.36606 -74.85127 39697 ft 452 kts 238°
2026-05-04 19:51 46.33080 -74.92651 39714 ft 451 kts 238°
2026-05-04 19:52 46.29552 -75.00157 39697 ft 451 kts 238°
2026-05-04 19:52 46.26025 -75.07663 39701 ft 451 kts 238°
2026-05-04 19:53 46.22517 -75.15101 39712 ft 451 kts 238°
2026-05-04 19:53 46.18978 -75.22579 39705 ft 450 kts 238°
2026-05-04 19:54 46.15450 -75.30022 39684 ft 450 kts 238°
2026-05-04 19:54 46.11904 -75.37462 39683 ft 450 kts 238°
2026-05-04 19:55 46.08354 -75.44879 39683 ft 449 kts 238°
2026-05-04 19:55 46.04814 -75.52278 39689 ft 449 kts 238°
2026-05-04 19:56 46.01276 -75.59677 39682 ft 448 kts 238°
2026-05-04 19:56 45.97702 -75.67029 39672 ft 448 kts 238°
2026-05-04 19:57 45.94138 -75.74347 39673 ft 447 kts 238°
2026-05-04 19:57 45.90584 -75.81676 39673 ft 447 kts 238°
2026-05-04 19:58 45.87031 -75.89008 39673 ft 447 kts 238°
2026-05-04 19:58 45.83475 -75.96327 39673 ft 447 kts 238°
2026-05-04 19:59 45.79908 -76.03636 39675 ft 448 kts 238°
2026-05-04 19:59 45.76345 -76.10940 39672 ft 447 kts 238°
2026-05-04 20:00 45.72781 -76.18226 39675 ft 447 kts 238°
2026-05-04 20:00 45.69202 -76.25502 39673 ft 446 kts 238°
2026-05-04 20:01 45.65629 -76.32755 39674 ft 447 kts 238°
2026-05-04 20:01 45.62082 -76.39950 39671 ft 446 kts 238°
2026-05-04 20:02 45.58532 -76.47127 39674 ft 446 kts 238°
2026-05-04 20:02 45.54962 -76.54310 39674 ft 446 kts 238°
2026-05-04 20:03 45.51376 -76.61509 39673 ft 446 kts 238°
2026-05-04 20:03 45.47834 -76.68754 39663 ft 445 kts 238°
2026-05-04 20:04 45.44320 -76.76025 39663 ft 445 kts 238°
2026-05-04 20:04 45.40814 -76.83283 39666 ft 445 kts 239°
2026-05-04 20:05 45.37313 -76.90529 39664 ft 445 kts 239°
2026-05-04 20:05 45.33795 -76.97770 39673 ft 445 kts 238°
2026-05-04 20:06 45.30268 -77.05006 39674 ft 446 kts 238°
2026-05-04 20:06 45.26727 -77.12238 39672 ft 446 kts 238°
2026-05-04 20:07 45.23792 -77.18233 39629 ft 447 kts 238°
2026-05-04 20:07 45.21997 -77.21888 39022 ft 451 kts 238°
2026-05-04 20:07 45.20207 -77.25519 38460 ft 447 kts 239°
2026-05-04 20:07 45.18434 -77.29107 37951 ft 442 kts 239°
2026-05-04 20:08 45.16678 -77.32669 37482 ft 440 kts 239°
2026-05-04 20:08 45.14930 -77.36219 37016 ft 439 kts 240°
2026-05-04 20:08 45.13183 -77.39762 36564 ft 438 kts 240°
2026-05-04 20:08 45.11441 -77.43287 36110 ft 436 kts 241°
2026-05-04 20:09 45.09701 -77.46806 35659 ft 437 kts 241°
2026-05-04 20:09 45.07952 -77.50336 35207 ft 440 kts 241°
2026-05-04 20:09 45.06189 -77.53891 34754 ft 442 kts 242°
2026-05-04 20:09 45.04419 -77.57443 34288 ft 443 kts 242°
2026-05-04 20:10 45.02630 -77.60996 33794 ft 442 kts 242°
2026-05-04 20:10 45.00851 -77.64531 33300 ft 442 kts 242°
2026-05-04 20:10 44.99073 -77.68067 32813 ft 442 kts 242°
2026-05-04 20:10 44.97293 -77.71618 32319 ft 443 kts 242°
2026-05-04 20:11 44.95513 -77.75173 31829 ft 444 kts 241°
2026-05-04 20:11 44.93726 -77.78743 31334 ft 446 kts 241°
2026-05-04 20:11 44.91934 -77.82320 30839 ft 446 kts 241°
2026-05-04 20:11 44.90140 -77.85896 30339 ft 447 kts 240°
2026-05-04 20:12 44.88344 -77.89472 29808 ft 447 kts 240°
2026-05-04 20:12 44.86542 -77.93017 29286 ft 444 kts 239°
2026-05-04 20:12 44.84702 -77.96508 28737 ft 442 kts 239°
2026-05-04 20:12 44.82849 -77.99958 28146 ft 440 kts 238°
2026-05-04 20:13 44.81004 -78.03368 27590 ft 436 kts 238°
2026-05-04 20:13 44.79175 -78.06747 27016 ft 431 kts 238°
2026-05-04 20:13 44.77367 -78.10092 26456 ft 428 kts 237°
2026-05-04 20:13 44.75593 -78.13373 25903 ft 425 kts 237°
2026-05-04 20:14 44.73813 -78.16669 25340 ft 422 kts 237°
2026-05-04 20:14 44.72044 -78.19946 24807 ft 419 kts 237°
2026-05-04 20:14 44.70290 -78.23193 24258 ft 416 kts 237°
2026-05-04 20:14 44.68538 -78.26433 23728 ft 414 kts 237°
2026-05-04 20:15 44.66802 -78.29636 23186 ft 411 kts 237°
2026-05-04 20:15 44.65080 -78.32810 22649 ft 407 kts 237°
2026-05-04 20:15 44.63369 -78.35959 22113 ft 403 kts 236°
2026-05-04 20:15 44.61672 -78.39079 21595 ft 400 kts 236°
2026-05-04 20:16 44.59987 -78.42173 21066 ft 397 kts 236°
2026-05-04 20:16 44.58317 -78.45237 20568 ft 393 kts 236°
2026-05-04 20:16 44.56666 -78.48266 20045 ft 389 kts 236°
2026-05-04 20:16 44.55030 -78.51262 19544 ft 386 kts 236°
2026-05-04 20:17 44.53403 -78.54235 19032 ft 383 kts 236°
2026-05-04 20:17 44.51799 -78.57163 18534 ft 380 kts 236°
2026-05-04 20:17 44.50199 -78.60087 18046 ft 377 kts 236°
2026-05-04 20:17 44.48612 -78.62985 17554 ft 374 kts 236°
2026-05-04 20:18 44.47034 -78.65865 17061 ft 371 kts 236°
2026-05-04 20:18 44.45466 -78.68720 16571 ft 368 kts 236°
2026-05-04 20:18 44.43910 -78.71549 16099 ft 365 kts 236°
2026-05-04 20:18 44.42367 -78.74352 15692 ft 361 kts 236°
2026-05-04 20:19 44.40830 -78.77142 15378 ft 361 kts 236°
2026-05-04 20:19 44.39316 -78.79887 14975 ft 359 kts 236°
2026-05-04 20:19 44.37786 -78.82658 14531 ft 356 kts 236°
2026-05-04 20:19 44.36277 -78.85383 14068 ft 353 kts 236°
2026-05-04 20:20 44.34767 -78.88082 13621 ft 351 kts 235°
2026-05-04 20:20 44.33269 -78.90755 13163 ft 348 kts 235°
2026-05-04 20:20 44.31785 -78.93415 12706 ft 346 kts 235°
2026-05-04 20:20 44.30331 -78.96020 12250 ft 344 kts 235°
2026-05-04 20:21 44.28846 -78.98684 11798 ft 341 kts 235°
2026-05-04 20:21 44.27414 -79.01253 11347 ft 339 kts 234°
2026-05-04 20:21 44.24347 -79.06182 10912 ft 324 kts 231°
2026-05-04 20:22 44.22882 -79.08403 10816 ft 298 kts 230°
2026-05-04 20:22 44.21530 -79.10441 10711 ft 275 kts 231°
2026-05-04 20:22 44.20279 -79.12334 10612 ft 263 kts 231°
2026-05-04 20:22 44.19040 -79.14214 10516 ft 261 kts 231°
2026-05-04 20:23 44.17815 -79.16081 10392 ft 262 kts 231°
2026-05-04 20:23 44.16586 -79.17954 10134 ft 262 kts 231°
2026-05-04 20:23 44.15360 -79.19821 9717 ft 260 kts 230°
2026-05-04 20:23 44.14148 -79.21668 9314 ft 257 kts 230°
2026-05-04 20:24 44.12946 -79.23505 8940 ft 257 kts 229°
2026-05-04 20:24 44.11742 -79.25331 8549 ft 255 kts 229°
2026-05-04 20:24 44.10554 -79.27132 8258 ft 248 kts 229°
2026-05-04 20:24 44.09421 -79.28848 8126 ft 233 kts 229°
2026-05-04 20:25 44.08342 -79.30444 8027 ft 223 kts 225°
2026-05-04 20:25 44.07059 -79.31678 8011 ft 228 kts 206°
2026-05-04 20:25 44.05489 -79.32074 8018 ft 235 kts 186°
2026-05-04 20:25 44.03840 -79.32020 7945 ft 238 kts 183°
2026-05-04 20:26 44.02186 -79.31889 7901 ft 237 kts 182°
2026-05-04 20:26 44.00538 -79.31745 7914 ft 238 kts 182°
2026-05-04 20:26 43.98877 -79.31601 7746 ft 242 kts 182°
2026-05-04 20:26 43.97197 -79.31460 7399 ft 241 kts 182°
2026-05-04 20:27 43.95540 -79.31317 7059 ft 237 kts 182°
2026-05-04 20:27 43.93905 -79.31174 6721 ft 235 kts 182°
2026-05-04 20:27 43.92281 -79.31035 6400 ft 233 kts 182°
2026-05-04 20:27 43.90669 -79.30901 6066 ft 231 kts 182°
2026-05-04 20:28 43.89077 -79.30814 5737 ft 226 kts 188°
2026-05-04 20:28 43.87578 -79.31275 5409 ft 218 kts 209°
2026-05-04 20:28 43.86380 -79.32479 5115 ft 212 kts 224°
2026-05-04 20:28 43.85318 -79.33919 4829 ft 216 kts 226°
2026-05-04 20:29 43.84259 -79.35404 4507 ft 216 kts 226°
2026-05-04 20:29 43.83214 -79.36876 4191 ft 212 kts 226°
2026-05-04 20:29 43.82198 -79.38318 3891 ft 206 kts 226°
2026-05-04 20:29 43.81223 -79.39709 3612 ft 203 kts 226°
2026-05-04 20:30 43.80243 -79.41112 3347 ft 203 kts 226°
2026-05-04 20:30 43.79264 -79.42527 3094 ft 202 kts 226°
2026-05-04 20:30 43.78297 -79.43929 3013 ft 202 kts 226°
2026-05-04 20:30 43.77325 -79.45345 3023 ft 203 kts 225°
2026-05-04 20:31 43.76357 -79.46753 3030 ft 200 kts 226°
2026-05-04 20:31 43.75388 -79.48163 2825 ft 201 kts 226°
2026-05-04 20:31 43.74499 -79.49468 2524 ft 172 kts 225°
2026-05-04 20:31 43.73714 -79.50619 2332 ft 160 kts 226°
2026-05-04 20:32 43.72959 -79.51727 2127 ft 157 kts 225°
2026-05-04 20:32 43.72216 -79.52813 1923 ft 157 kts 225°
2026-05-04 20:32 43.71516 -79.53863 1712 ft 138 kts 225°
2026-05-04 20:32 43.70878 -79.54820 1516 ft 133 kts 224°
2026-05-04 20:33 43.70233 -79.55746 1385 ft 136 kts 224°
2026-05-04 20:33 43.69577 -79.56695 1258 ft 127 kts 225°
2026-05-04 20:33 43.68923 -79.57655 1162 ft 144 kts 227°
2026-05-04 20:33 43.68276 -79.58606 895 ft 135 kts 224°
2026-05-04 20:34 43.67630 -79.59527 646 ft 130 kts 225°
2026-05-04 20:34 43.67043 -79.60408 565 ft 110 kts 227°
2026-05-04 20:34 43.66604 -79.61048 577 ft 74 kts 226°
2026-05-04 20:34 43.66411 -79.61440 568 ft 28 kts 251°
2026-05-04 20:35 43.66375 -79.61638 572 ft 16 kts 269°
2026-05-04 20:35 43.66412 -79.61749 568 ft 10 kts 307°
2026-05-04 20:35 43.66455 -79.61815 570 ft 9 kts 314°
2026-05-04 20:35 43.66510 -79.61880 567 ft 12 kts 322°
2026-05-04 20:36 43.66581 -79.61964 567 ft 13 kts 316°
2026-05-04 20:36 43.66623 -79.62017 571 ft 0 kts 326°
2026-05-04 20:36 43.66630 -79.62020 571 ft 4 kts 339°
2026-05-04 20:36 43.66658 -79.62017 577 ft 3 kts 17°
2026-05-04 20:37 43.66690 -79.61983 574 ft 8 kts 42°
2026-05-04 20:37 43.66736 -79.61924 578 ft 9 kts 43°
2026-05-04 20:37 43.66785 -79.61860 576 ft 10 kts 43°
2026-05-04 20:37 43.66840 -79.61792 577 ft 11 kts 41°
2026-05-04 20:38 43.66900 -79.61721 580 ft 12 kts 40°
2026-05-04 20:38 43.66959 -79.61649 577 ft 11 kts 43°
2026-05-04 20:38 43.67012 -79.61580 576 ft 10 kts 43°
2026-05-04 20:38 43.67056 -79.61523 578 ft 8 kts 42°
2026-05-04 20:39 43.67096 -79.61471 580 ft 8 kts 44°
2026-05-04 20:39 43.67138 -79.61413 579 ft 9 kts 45°
2026-05-04 20:39 43.67183 -79.61348 578 ft 10 kts 47°
2026-05-04 20:39 43.67232 -79.61267 570 ft 13 kts 51°
2026-05-04 20:40 43.67293 -79.61158 573 ft 15 kts 53°
2026-05-04 20:40 43.67354 -79.61045 576 ft 15 kts 52°
2026-05-04 20:40 43.67416 -79.60941 572 ft 13 kts 51°
2026-05-04 20:40 43.67468 -79.60844 568 ft 12 kts 53°
2026-05-04 20:41 43.67521 -79.60760 576 ft 11 kts 46°
2026-05-04 20:41 43.67570 -79.60688 574 ft 10 kts 46°
2026-05-04 20:41 43.67620 -79.60622 570 ft 6 kts 32°
2026-05-04 20:41 43.67648 -79.60628 571 ft 6 kts 333°
2026-05-04 20:42 43.67672 -79.60699 576 ft 10 kts 270°
2026-05-04 20:42 43.67682 -79.60749 570 ft 5 kts 298°
2026-05-04 20:42 43.67723 -79.60815 573 ft 11 kts 314°
2026-05-04 20:42 43.67747 -79.60859 572 ft 1 kts 288°
2026-05-04 20:43 43.67746 -79.60887 575 ft 5 kts 266°
2026-05-04 20:43 43.67736 -79.60926 573 ft 4 kts 245°
2026-05-04 20:43 43.67726 -79.60957 571 ft 3 kts 245°
2026-05-04 20:43 43.67720 -79.60973 569 ft 1 kts 245°
2026-05-04 20:44 43.67720 -79.60974 569 ft 0 kts 245°